This is the latest recevied weather packets stored in our database for station/object W0AKO. If no packets are shown the sender has not sent any weather packets the latest 10 day(s).
| Time | Temp. | Humidity | Pressure | Rain* | Wind** | Luminosity | Snow |
|---|---|---|---|---|---|---|---|
| 1777549441 | 13.33° C | 10% | 1017 hPa | 0 mm | - | 0 W/m² | - |
| 1777549138 | 13.33° C | 10% | 1016.8 hPa | 0 mm | - | 0 W/m² | - |
| 1777548834 | 13.33° C | 10% | 1016.8 hPa | 0 mm | - | 0 W/m² | - |
| 1777548532 | 13.89° C | 10% | 1016.7 hPa | 0 mm | - | 0 W/m² | - |
| 1777548229 | 13.89° C | 10% | 1016.7 hPa | 0 mm | - | 0 W/m² | - |
| 1777547925 | 14.44° C | 10% | 1016.7 hPa | 0 mm | - | 0 W/m² | - |
| 1777547621 | 13.89° C | 10% | 1016.9 hPa | 0 mm | - | 0 W/m² | - |
| 1777547318 | 13.33° C | 10% | 1017 hPa | 0 mm | - | 0 W/m² | - |
| 1777547016 | 13.89° C | 10% | 1016.7 hPa | 0 mm | - | 0 W/m² | - |
| 1777546713 | 13.89° C | 10% | 1016.9 hPa | 0 mm | - | 0 W/m² | - |
| 1777546409 | 13.89° C | 10% | 1017.1 hPa | 0 mm | - | 0 W/m² | - |
| 1777546106 | 13.89° C | 10% | 1016.8 hPa | 0 mm | - | 0 W/m² | - |
| 1777545802 | 13.89° C | 10% | 1017.2 hPa | 0 mm | - | 0 W/m² | - |
| 1777545499 | 14.44° C | 10% | 1016.9 hPa | 0 mm | - | 0 W/m² | - |
| 1777545196 | 13.89° C | 10% | 1016.9 hPa | 0 mm | - | 0 W/m² | - |
| 1777544894 | 15° C | 10% | 1016.8 hPa | 0 mm | - | 0 W/m² | - |
| 1777544590 | 15° C | 10% | 1016.9 hPa | 0 mm | - | 0 W/m² | - |
| 1777544286 | 15° C | 10% | 1017 hPa | 0 mm | - | 0 W/m² | - |
| 1777543984 | 15° C | 10% | 1017 hPa | 0 mm | - | 0 W/m² | - |
| 1777543680 | 15° C | 10% | 1016.7 hPa | 0 mm | - | 0 W/m² | - |
| 1777543376 | 15° C | 10% | 1016.9 hPa | 0 mm | - | 0 W/m² | - |
| 1777543071 | 15° C | 10% | 1016.8 hPa | 0 mm | - | 0 W/m² | - |
| 1777542768 | 14.44° C | 10% | 1016.7 hPa | 0 mm | - | 0 W/m² | - |
| 1777542465 | 14.44° C | 10% | 1016.7 hPa | 0 mm | - | 0 W/m² | - |
| 1777542161 | 13.89° C | 10% | 1016.8 hPa | 0 mm | - | 0 W/m² | - |
* Rain latest hour (hover to see other rain measurements)
** Current wind speed in m/s (hover to see current wind gust speed)